Location: ??????
(56.0120°N, 39.1740°E)
Time: 09:13:51
(UTC+00:00)

IRS-1C Rocket - Pass Details

Date: 14 April 2026
Orbit: 799 x 804 km, 98.7° (Epoch: 9 May)

Event Time Altitude Azimuth Distance (km) Brightness Sun altitude
Exits shadow 19:01:19 24° 181° (S) 1,612 5.2 -18.0°
Maximum altitude 19:04:30 65° 257° (WSW) 889 4.4 -18.3°
Drops below altitude 10° 19:09:46 10° 339° (NNW) 2,398 7.7 -18.7°
Sets 19:12:09 0° 343° (NNW) 3,334 8.7 -18.9°
